Lebanon, NH

2:41 PM EDT on October 14, 2019 (GMT -0400)
Lebanon Municipal

Weather History for KLEB - September, 2019

Change the Weather History Date:

Sunday, September 22, 2019

  Actual Average Record
Temperature  
Mean Temperature 70 °F -  
Max Temperature 87 °F 68 °F 90 °F (1965)
Min Temperature 55 °F 47 °F 31 °F (1929)
Cooling Degree Days 6    
Growing Degree Days 20 (Base 50)    
Moisture  
Dew Point 56 °F    
Average Humidity 81    
Maximum Humidity 94    
Minimum Humidity 44    
Precipitation  
Precipitation 0.00 in - - ()
Sea Level Pressure  
Sea Level Pressure 30.09 in    
Wind  
Wind Speed 2 mph (South)    
Max Wind Speed 10 mph    
Max Gust Speed -    
Visibility 4 miles    
Events Fog    
Averages and records for this station are not official NWS values.
T = Trace of Precipitation, MM = Missing Value Source: NWS Daily Summary

Daily Weather History Graph

Daily Weather History Graph

Search for Another Location

Airport or City:

Astronomy

Sep. 22, 2019 Rise Set
Actual Time 6:36 AM EDT 6:47 PM EDT
Civil Twilight 6:07 AM EDT 7:15 PM EDT
Nautical Twilight 5:33 AM EDT 7:49 PM EDT
Astronomical Twilight 4:59 AM EDT 8:23 PM EDT
Moon No Moon Rise 2:51 PM EDT (9/22)
Length of Visible Light 13h 08m
Length of Day
12h 10m
Last Quarter, 44% of the Moon is Illuminated
Sep 22
Last Quarter
Sep 28
New
Oct 5
First Quarter
Oct 13
Full
Oct 21
Last Quarter

Hourly Weather History & Observations

Time (EDT) Temp. Heat Index Dew Point Humidity Pressure Visibility Wind Dir Wind Speed Gust Speed Precip Events Conditions
12:02 AM 59.0 °F - 55.0 °F 87% 30.17 in 3.0 mi Calm Calm - N/A   Partly Cloudy
12:10 AM 57.0 °F - 53.1 °F 87% 30.17 in 1.8 mi Calm Calm - N/A   Partly Cloudy
12:18 AM 57.9 °F - 54.0 °F 87% 30.17 in 3.0 mi ESE 3.5 mph - N/A   Clear
12:28 AM 55.9 °F - 53.1 °F 90% 30.17 in 1.5 mi South 4.6 mph - N/A   Clear
12:37 AM 57.0 °F - 54.0 °F 89% 30.16 in 2.0 mi Calm Calm - N/A   Partly Cloudy
12:49 AM 55.4 °F - 53.6 °F 94% 30.17 in 1.0 mi NE 3.5 mph - N/A   Mist
12:50 AM 55.9 °F - 53.1 °F 90% 30.15 in 1.0 mi ENE 3.5 mph - N/A   Mist
12:57 AM 55.9 °F - 53.1 °F 90% 30.17 in 0.5 mi Calm Calm - N/A Fog Fog
1:09 AM 55.0 °F - 52.0 °F 89% 30.17 in 0.2 mi Calm Calm - N/A Fog Fog
1:13 AM 55.0 °F - 52.0 °F 89% 30.17 in 0.5 mi South 3.5 mph - N/A Fog Fog
1:26 AM 55.0 °F - 52.0 °F 89% 30.17 in 2.0 mi Calm Calm - N/A   Overcast
1:41 AM 55.0 °F - 51.1 °F 86% 30.17 in 0.8 mi Calm Calm - N/A   Overcast
1:53 AM 55.0 °F - 52.0 °F 89% 30.14 in 0.2 mi Calm Calm - N/A Fog Fog
2:11 AM 55.9 °F - 53.1 °F 90% 30.16 in 0.5 mi Calm Calm - N/A Fog Fog
2:28 AM 55.9 °F - 53.1 °F 90% 30.16 in 0.2 mi Calm Calm - N/A Fog Fog
2:53 AM 57.0 °F - 54.0 °F 89% 30.14 in 0.2 mi Calm Calm - N/A Fog Fog
3:45 AM 57.9 °F - 55.0 °F 90% 30.16 in 0.5 mi NE 3.5 mph - N/A Fog Fog
3:53 AM 57.9 °F - 55.0 °F 90% 30.14 in 0.2 mi Calm Calm - N/A Fog Fog
4:53 AM 57.9 °F - 55.9 °F 93% 30.13 in 0.2 mi South 3.5 mph - N/A Fog Fog
5:01 AM 57.9 °F - 55.0 °F 90% 30.16 in 0.5 mi SSE 3.5 mph - N/A Fog Fog
5:33 AM 57.9 °F - 55.0 °F 90% 30.16 in 0.2 mi Calm Calm - N/A Fog Fog
5:53 AM 57.9 °F - 55.0 °F 90% 30.14 in 0.2 mi South 4.6 mph - N/A Fog Fog
6:22 AM 57.0 °F - 54.0 °F 89% 30.16 in 0.5 mi South 3.5 mph - N/A Fog Fog
6:53 AM 57.0 °F - 54.0 °F 89% 30.14 in 0.2 mi Calm Calm - N/A Fog Fog
8:36 AM 57.9 °F - 55.0 °F 90% 30.15 in 0.5 mi Calm Calm - N/A Fog Fog
8:44 AM 57.9 °F - 55.0 °F 90% 30.14 in 1.0 mi East 3.5 mph - N/A   Mist
8:53 AM 57.9 °F - 55.0 °F 90% 30.14 in 1.0 mi Calm Calm - N/A   Mist
9:53 AM 59.0 °F - 55.9 °F 90% 30.11 in 1.0 mi Calm Calm - N/A   Overcast
10:00 AM 60.1 °F - 55.9 °F 86% 30.13 in 2.0 mi WNW 3.5 mph - N/A   Overcast
10:24 AM 61.0 °F - 57.9 °F 90% 30.13 in 5.0 mi Calm Calm - N/A   Mostly Cloudy
10:36 AM 62.1 °F - 57.9 °F 86% 30.12 in 6.0 mi Calm Calm - N/A   Scattered Clouds
10:53 AM 66.0 °F - 57.9 °F 75% 30.10 in 10.0 mi Calm Calm - N/A   Clear
11:53 AM 73.9 °F - 60.1 °F 62% 30.07 in 10.0 mi Calm Calm - N/A   Clear
12:53 PM 79.0 °F - 59.0 °F 50% 30.04 in 10.0 mi SSW 6.9 mph - N/A   Clear
1:53 PM 82.9 °F 83.2 °F 60.1 °F 46% 30.01 in 10.0 mi South 9.2 mph - N/A   Clear
2:53 PM 84.9 °F 85.0 °F 61.0 °F 44% 29.98 in 10.0 mi SSW 6.9 mph - N/A   Clear
3:53 PM 86.0 °F 86.3 °F 62.1 °F 44% 29.95 in 10.0 mi WSW 6.9 mph - N/A   Clear
4:53 PM 84.0 °F 84.4 °F 61.0 °F 46% 29.94 in 10.0 mi SW 10.4 mph - N/A   Clear
5:53 PM 82.0 °F 83.0 °F 62.1 °F 51% 29.93 in 10.0 mi South 10.4 mph - N/A   Clear
6:53 PM 73.9 °F - 63.0 °F 68% 29.94 in 10.0 mi South 5.8 mph - N/A   Clear
7:53 PM 72.0 °F - 62.1 °F 71% 29.93 in 10.0 mi SSE 6.9 mph - N/A   Clear
8:53 PM 70.0 °F - 62.1 °F 76% 29.93 in 10.0 mi Calm Calm - N/A   Clear
9:53 PM 64.9 °F - 60.1 °F 84% 29.92 in 9.0 mi Calm Calm - N/A   Clear
10:53 PM 66.9 °F - 62.1 °F 84% 29.89 in 10.0 mi Calm Calm - N/A   Clear
11:53 PM 66.9 °F - 61.0 °F 81% 29.87 in 10.0 mi Calm Calm - N/A   Clear